When you browse on this site, cookies collect data to enhance your experience and personalize the content and advertising you see.
Visit our Privacy Policy to learn more. By continuing to use the site, you agree to this use of cookies and data.
  • Em Portugal
  • Lista de países
  • Para 7 dias
  • Temperatura da água
  • Mapas de satélite
  • Mapa do tempo
  • Widgets de tempo
  • user-avatar
    Iniciar Sessão

    Previsão horária em Albena

    Hoje, 16 Novembro, Sexta-feira

    Tempo Temperatura Precipitação Vento Pressão Humidade
    00:00 +2°C° 0 mm 7 m/s 752 mmHg 78%
    01:00 0°C° 0 mm 7 m/s 752 mmHg 80%
    02:00 0°C° 0 mm 8 m/s 752 mmHg 82%
    03:00 0°C° 0 mm 8 m/s 752 mmHg 82%
    04:00 0°C° 0 mm 8 m/s 752 mmHg 82%
    05:00 -1°C° 0 mm 8 m/s 752 mmHg 82%
    06:00 -1°C° 0 mm 8 m/s 752 mmHg 82%
    07:00 0°C° 0 mm 8 m/s 753 mmHg 81%
    08:00 0°C° 0 mm 8 m/s 753 mmHg 79%
    09:00 0°C° 0 mm 8 m/s 753 mmHg 77%
    10:00 0°C° 0 mm 8 m/s 754 mmHg 75%
    11:00 0°C° 0 mm 8 m/s 754 mmHg 73%
    12:00 0°C° 0 mm 8 m/s 754 mmHg 71%
    13:00 0°C° 0 mm 8 m/s 754 mmHg 69%
    14:00 0°C° 0 mm 8 m/s 754 mmHg 72%
    15:00 -1°C° 0.1 mm 8 m/s 754 mmHg 74%
    16:00 -1°C° 0.1 mm 8 m/s 754 mmHg 76%
    17:00 -2°C° 0.1 mm 8 m/s 755 mmHg 78%
    18:00 -2°C° 0.1 mm 7 m/s 755 mmHg 79%
    19:00 -2°C° 0.1 mm 7 m/s 755 mmHg 80%
    20:00 -2°C° 0.1 mm 7 m/s 755 mmHg 81%
    21:00 -2°C° 0 mm 7 m/s 755 mmHg 81%
    22:00 -3°C° 0 mm 7 m/s 755 mmHg 82%
    23:00 -3°C° 0 mm 6 m/s 755 mmHg 82%

    Amanhã, 17 Novembro, Sábado

    Tempo Temperatura Precipitação Vento Pressão Humidade
    00:00 -3°C° 0 mm 6 m/s 756 mmHg 83%
    01:00 -3°C° 0 mm 6 m/s 756 mmHg 84%
    02:00 -3°C° 0 mm 6 m/s 756 mmHg 84%
    03:00 -2°C° 0 mm 6 m/s 756 mmHg 85%
    04:00 -2°C° 0 mm 6 m/s 756 mmHg 85%
    05:00 -2°C° 0 mm 6 m/s 756 mmHg 86%
    06:00 -2°C° 0 mm 6 m/s 756 mmHg 86%
    07:00 -2°C° 0 mm 6 m/s 756 mmHg 87%
    08:00 -2°C° 0 mm 6 m/s 756 mmHg 87%
    09:00 -2°C° 0.1 mm 6 m/s 756 mmHg 87%
    10:00 -1°C° 0.1 mm 6 m/s 756 mmHg 86%
    11:00 -1°C° 0.1 mm 7 m/s 756 mmHg 85%
    12:00 0°C° 0.2 mm 7 m/s 756 mmHg 85%
    13:00 0°C° 0.2 mm 7 m/s 756 mmHg 85%
    14:00 0°C° 0.2 mm 7 m/s 755 mmHg 85%
    15:00 +2°C° 0.1 mm 7 m/s 755 mmHg 86%
    16:00 +2°C° 0.1 mm 7 m/s 755 mmHg 87%
    17:00 +2°C° 0.1 mm 7 m/s 755 mmHg 88%
    18:00 +2°C° 0.2 mm 7 m/s 755 mmHg 88%
    19:00 +3°C° 0.2 mm 7 m/s 755 mmHg 88%
    20:00 +2°C° 0.2 mm 8 m/s 755 mmHg 88%
    21:00 +3°C° 0.3 mm 7 m/s 755 mmHg 88%
    22:00 +2°C° 0.3 mm 7 m/s 755 mmHg 88%
    23:00 +2°C° 0.3 mm 7 m/s 755 mmHg 88%

    Depois de amanhã, 18 Novembro, Domingo

    Tempo Temperatura Precipitação Vento Pressão Humidade
    00:00 +2°C° 0.2 mm 7 m/s 755 mmHg 88%
    01:00 +2°C° 0.2 mm 7 m/s 755 mmHg 88%
    02:00 +2°C° 0.2 mm 7 m/s 755 mmHg 88%
    03:00 0°C° 0.1 mm 7 m/s 755 mmHg 88%
    04:00 0°C° 0.1 mm 7 m/s 754 mmHg 88%
    05:00 0°C° 0.1 mm 7 m/s 754 mmHg 87%
    06:00 0°C° 0.1 mm 7 m/s 754 mmHg 87%
    07:00 0°C° 0.1 mm 7 m/s 754 mmHg 86%
    08:00 +1°C° 0.1 mm 6 m/s 754 mmHg 85%
    09:00 +1°C° 0 mm 6 m/s 754 mmHg 82%
    10:00 +2°C° 0 mm 5 m/s 754 mmHg 78%
    11:00 +3°C° 0 mm 5 m/s 754 mmHg 75%
    12:00 +3°C° 0 mm 5 m/s 754 mmHg 72%
    13:00 +5°C° 0 mm 5 m/s 753 mmHg 70%
    14:00 +5°C° 0 mm 4 m/s 752 mmHg 68%
    15:00 +5°C° 0 mm 4 m/s 752 mmHg 70%
    16:00 +4°C° 0 mm 4 m/s 751 mmHg 73%
    17:00 +3°C° 0 mm 4 m/s 751 mmHg 76%
    18:00 +3°C° 0 mm 4 m/s 751 mmHg 76%
    19:00 +1°C° 0 mm 4 m/s 750 mmHg 76%
    20:00 +1°C° 0 mm 4 m/s 750 mmHg 77%
    21:00 +1°C° 0 mm 4 m/s 749 mmHg 77%
    22:00 +1°C° 0 mm 4 m/s 749 mmHg 77%
    23:00 +1°C° 0 mm 4 m/s 748 mmHg 78%

    19 Novembro, Segunda-feira

    Tempo Temperatura Precipitação Vento Pressão Humidade
    00:00 +1°C° 0.1 mm 4 m/s 748 mmHg 79%
    01:00 +3°C° 0.1 mm 4 m/s 747 mmHg 80%
    02:00 +3°C° 0.1 mm 4 m/s 747 mmHg 82%
    03:00 +2°C° 0.7 mm 5 m/s 746 mmHg 84%
    04:00 +2°C° 0.7 mm 5 m/s 746 mmHg 86%
    05:00 +2°C° 0.7 mm 5 m/s 746 mmHg 88%
    06:00 +2°C° 0.7 mm 6 m/s 746 mmHg 89%
    07:00 +2°C° 0.7 mm 6 m/s 746 mmHg 90%
    08:00 +2°C° 0.7 mm 6 m/s 746 mmHg 91%
    09:00 +3°C° 0.2 mm 6 m/s 745 mmHg 89%
    10:00 +4°C° 0.2 mm 7 m/s 745 mmHg 87%
    11:00 +4°C° 0.2 mm 7 m/s 745 mmHg 85%
    12:00 +5°C° 0.2 mm 7 m/s 745 mmHg 85%
    13:00 +5°C° 0.2 mm 6 m/s 744 mmHg 85%
    14:00 +5°C° 0.2 mm 6 m/s 744 mmHg 85%
    15:00 +5°C° 0.3 mm 6 m/s 744 mmHg 87%
    16:00 +6°C° 0.3 mm 5 m/s 744 mmHg 89%
    17:00 +6°C° 0.3 mm 5 m/s 744 mmHg 91%
    18:00 +6°C° 0.4 mm 5 m/s 745 mmHg 91%
    19:00 +6°C° 0.4 mm 4 m/s 745 mmHg 92%
    20:00 +6°C° 0.4 mm 4 m/s 745 mmHg 93%
    21:00 +7°C° 0.1 mm 3 m/s 745 mmHg 93%
    22:00 +7°C° 0.1 mm 3 m/s 746 mmHg 94%
    23:00 +7°C° 0.1 mm 2 m/s 746 mmHg 94%

    20 Novembro, Terça-feira

    Tempo Temperatura Precipitação Vento Pressão Humidade
    00:00 +7°C° 0 mm 2 m/s 746 mmHg 94%
    01:00 +7°C° 0 mm 2 m/s 746 mmHg 94%
    02:00 +7°C° 0 mm 2 m/s 746 mmHg 95%
    03:00 +7°C° 0 mm 2 m/s 746 mmHg 95%
    04:00 +7°C° 0 mm 2 m/s 746 mmHg 96%
    05:00 +8°C° 0 mm 2 m/s 746 mmHg 96%
    06:00 +8°C° 0.2 mm 3 m/s 746 mmHg 96%
    07:00 +9°C° 0.2 mm 3 m/s 746 mmHg 96%
    08:00 +8°C° 0.2 mm 4 m/s 746 mmHg 96%
    09:00 +10°C° 0.5 mm 4 m/s 746 mmHg 95%
    10:00 +10°C° 0.5 mm 5 m/s 746 mmHg 94%
    11:00 +10°C° 0.5 mm 5 m/s 745 mmHg 93%
    12:00 +11°C° 0.2 mm 6 m/s 745 mmHg 93%
    13:00 +11°C° 0.2 mm 6 m/s 744 mmHg 92%
    14:00 +13°C° 0.2 mm 6 m/s 744 mmHg 92%
    15:00 +13°C° 0.6 mm 6 m/s 743 mmHg 92%
    16:00 +12°C° 0.6 mm 7 m/s 743 mmHg 93%
    17:00 +12°C° 0.6 mm 7 m/s 742 mmHg 94%
    18:00 +12°C° 0.8 mm 7 m/s 742 mmHg 92%
    19:00 +13°C° 0.8 mm 8 m/s 742 mmHg 91%
    20:00 +13°C° 0.8 mm 8 m/s 741 mmHg 89%
    21:00 +13°C° 0.5 mm 8 m/s 741 mmHg 89%
    22:00 +13°C° 0.5 mm 8 m/s 741 mmHg 89%
    23:00 +14°C° 0.5 mm 7 m/s 741 mmHg 89%

    21 Novembro, Quarta-feira

    Tempo Temperatura Precipitação Vento Pressão Humidade
    00:00 +14°C° 0 mm 7 m/s 741 mmHg 88%
    01:00 +14°C° 0 mm 7 m/s 740 mmHg 87%
    02:00 +15°C° 0 mm 7 m/s 740 mmHg 86%
    03:00 +14°C° 0.2 mm 7 m/s 740 mmHg 87%
    04:00 +14°C° 0.2 mm 7 m/s 740 mmHg 87%
    05:00 +14°C° 0.2 mm 6 m/s 739 mmHg 87%
    06:00 +15°C° 0.1 mm 7 m/s 739 mmHg 86%
    07:00 +15°C° 0.1 mm 8 m/s 739 mmHg 85%
    08:00 +15°C° 0.1 mm 8 m/s 739 mmHg 85%
    09:00 +16°C° 0 mm 9 m/s 739 mmHg 80%
    10:00 +17°C° 0 mm 9 m/s 739 mmHg 75%
    11:00 +18°C° 0 mm 9 m/s 739 mmHg 70%
    12:00 +18°C° 0 mm 9 m/s 739 mmHg 67%
    13:00 +20°C° 0 mm 8 m/s 738 mmHg 63%
    14:00 +20°C° 0 mm 7 m/s 738 mmHg 59%
    15:00 +18°C° 0 mm 7 m/s 738 mmHg 63%
    16:00 +17°C° 0 mm 6 m/s 738 mmHg 66%
    17:00 +16°C° 0 mm 5 m/s 738 mmHg 70%
    18:00 +16°C° 0 mm 5 m/s 739 mmHg 72%
    19:00 +15°C° 0 mm 5 m/s 739 mmHg 74%
    20:00 +14°C° 0 mm 5 m/s 739 mmHg 76%
    21:00 +14°C° 0 mm 4 m/s 739 mmHg 79%
    22:00 +13°C° 0 mm 4 m/s 740 mmHg 82%
    23:00 +13°C° 0 mm 4 m/s 740 mmHg 86%
    Mostrar mais